QPF
0.01 0.01 0.01 0.02 0.03 0.05 0.09 0.13 0.15 0.15 0.18 0.08 0.03 0.02 0.01 0.01 0.01 0.00 0.00 0.00 0.00 0.00 0.00 0.00 0.00 0.00 0.00 0.00 0.00 0.00 0.00 0.00 0.00 0.00 0.00 0.00 0.00 0.00
0.01 0.01 0.01 0.01 0.02 0.04 0.08 0.14 0.18 0.20 0.21 0.13 0.05 0.03 0.04 0.02 0.03 0.01 0.00 0.00 0.00 0.00 0.00 0.00 0.00 0.00 0.00 0.00 0.00 0.00 0.00 0.00 0.00 0.00 0.00 0.00 0.00 0.00
0.02 0.01 0.01 0.01 0.01 0.03 0.07 0.12 0.18 0.24 0.23 0.21 0.09 0.05 0.07 0.05 0.07 0.02 0.01 0.01 0.01 0.01 0.01 0.00 0.00 0.00 0.00 0.00 0.00 0.00 0.00 0.00 0.00 0.00 0.00 0.00 0.00 0.00
0.02 0.02 0.02 0.02 0.02 0.03 0.06 0.09 0.15 0.21 0.21 0.22 0.17 0.13 0.13 0.10 0.09 0.07 0.05 0.03 0.02 0.06 0.09 0.02 0.00 0.00 0.00 0.00 0.00 0.00 0.00 0.00 0.00 0.00 0.00 0.00 0.00 0.00
0.02 0.02 0.01 0.01 0.02 0.03 0.05 0.10 0.14 0.19 0.21 0.18 0.21 0.21 0.17 0.13 0.12 0.09 0.06 0.06 0.05 0.05 0.12 0.06 0.01 0.00 0.00 0.00 0.00 0.00 0.00 0.00 0.00 0.00 0.00 0.00 0.00 0.00
0.02 0.01 0.01 0.01 0.01 0.04 0.06 0.10 0.14 0.18 0.21 0.20 0.21 0.23 0.20 0.16 0.13 0.11 0.10 0.09 0.08 0.06 0.06 0.06 0.04 0.01 0.00 0.00 0.00 0.00 0.00 0.00 0.00 0.00 0.00 0.00 0.00 0.00
0.04 0.03 0.03 0.02 0.01 0.01 0.03 0.06 0.10 0.16 0.19 0.20 0.20 0.21 0.19 0.16 0.13 0.12 0.11 0.13 0.10 0.09 0.08 0.07 0.05 0.04 0.02 0.01 0.01 0.00 0.00 0.00 0.00 0.00 0.00 0.00 0.00 0.00
0.06 0.05 0.05 0.03 0.01 0.01 0.01 0.00 0.02 0.06 0.11 0.16 0.16 0.14 0.17 0.17 0.15 0.14 0.12 0.12 0.11 0.09 0.08 0.09 0.10 0.08 0.07 0.07 0.08 0.07 0.03 0.01 0.00 0.00 0.00 0.00 0.00 0.00
0.05 0.04 0.05 0.03 0.01 0.02 0.03 0.02 0.02 0.02 0.02 0.06 0.11 0.13 0.15 0.19 0.15 0.12 0.11 0.11 0.12 0.09 0.06 0.06 0.08 0.09 0.10 0.10 0.08 0.06 0.04 0.02 0.00 0.00 0.00 0.00 0.00 0.00
0.04 0.04 0.05 0.06 0.07 0.06 0.05 0.06 0.07 0.07 0.04 0.02 0.07 0.10 0.11 0.14 0.14 0.12 0.11 0.08 0.07 0.04 0.03 0.03 0.04 0.06 0.06 0.07 0.06 0.04 0.02 0.01 0.00 0.00 0.00 0.00 0.00 0.00
0.09 0.10 0.12 0.13 0.17 0.13 0.05 0.06 0.10 0.11 0.06 0.04 0.02 0.02 0.01 0.02 0.04 0.07 0.07 0.05 0.05 0.03 0.02 0.01 0.02 0.02 0.04 0.05 0.05 0.04 0.03 0.02 0.01 0.00 0.00 0.00 0.00 0.00
0.14 0.15 0.18 0.13 0.15 0.11 0.04 0.12 0.16 0.12 0.08 0.08 0.07 0.04 0.02 0.01 0.01 0.03 0.09 0.08 0.07 0.05 0.02 0.01 0.01 0.02 0.04 0.07 0.06 0.04 0.02 0.02 0.01 0.01 0.01 0.01 0.01 0.00
0.08 0.11 0.08 0.07 0.05 0.04 0.03 0.08 0.12 0.07 0.04 0.09 0.11 0.07 0.04 0.03 0.03 0.03 0.04 0.05 0.05 0.05 0.03 0.01 0.02 0.02 0.03 0.04 0.04 0.04 0.02 0.02 0.02 0.02 0.02 0.02 0.02 0.02
0.03 0.05 0.03 0.03 0.02 0.02 0.01 0.03 0.04 0.03 0.06 0.10 0.10 0.06 0.04 0.03 0.03 0.03 0.05 0.07 0.06 0.06 0.04 0.02 0.02 0.03 0.03 0.03 0.03 0.03 0.02 0.02 0.02 0.02 0.02 0.03 0.03 0.03
0.01 0.01 0.01 0.00 0.00 0.01 0.01 0.01 0.01 0.04 0.07 0.08 0.09 0.06 0.04 0.03 0.04 0.05 0.07 0.08 0.08 0.06 0.03 0.03 0.03 0.03 0.02 0.02 0.02 0.02 0.01 0.01 0.01 0.01 0.01 0.01 0.02 0.02
0.02 0.02 0.01 0.01 0.01 0.02 0.03 0.03 0.04 0.06 0.08 0.10 0.09 0.06 0.05 0.04 0.05 0.06 0.07 0.06 0.07 0.06 0.05 0.04 0.04 0.03 0.03 0.03 0.03 0.03 0.03 0.03 0.03 0.03 0.02 0.02 0.01 0.01
0.02 0.06 0.08 0.10 0.09 0.09 0.10 0.09 0.11 0.11 0.11 0.12 0.11 0.10 0.09 0.08 0.07 0.05 0.03 0.03 0.03 0.05 0.06 0.06 0.05 0.03 0.02 0.03 0.04 0.05 0.05 0.05 0.05 0.05 0.03 0.02 0.02 0.03
0.04 0.06 0.08 0.11 0.13 0.15 0.15 0.16 0.18 0.17 0.16 0.14 0.12 0.10 0.09 0.07 0.06 0.05 0.03 0.02 0.03 0.03 0.03 0.02 0.01 0.01 0.02 0.03 0.04 0.05 0.05 0.05 0.05 0.05 0.04 0.02 0.02 0.03
0.02 0.03 0.04 0.04 0.07 0.10 0.13 0.15 0.15 0.14 0.12 0.09 0.07 0.05 0.03 0.02 0.02 0.03 0.02 0.01 0.01 0.01 0.01 0.01 0.01 0.01 0.01 0.02 0.04 0.02 0.03 0.04 0.03 0.03 0.03 0.02 0.01 0.01
0.01 0.02 0.02 0.03 0.03 0.04 0.05 0.06 0.06 0.05 0.04 0.03 0.02 0.01 0.01 0.01 0.01 0.01 0.01 0.00 0.00 0.01 0.01 0.02 0.02 0.01 0.01 0.02 0.03 0.04 0.02 0.01 0.01 0.01 0.01 0.01 0.01 0.01
0.01 0.01 0.02 0.02 0.01 0.01 0.01 0.01 0.01 0.01 0.01 0.01 0.01 0.01 0.01 0.01 0.01 0.01 0.01 0.00 0.01 0.01 0.01 0.02 0.01 0.00 0.00 0.01 0.03 0.03 0.03 0.01 0.00 0.00 0.00 0.00 0.00 0.00
0.00 0.00 0.00 0.00 0.00 0.00 0.00 0.00 0.00 0.00 0.00 0.00 0.00 0.00 0.00 0.01 0.01 0.01 0.01 0.01 0.01 0.01 0.01 0.01 0.01 0.00 0.01 0.01 0.01 0.01 0.01 0.01 0.01 0.00 0.00 0.00 0.00 0.00
0.00 0.00 0.00 0.00 0.00 0.00 0.00 0.00 0.00 0.00 0.00 0.00 0.00 0.00 0.01 0.01 0.01 0.01 0.01 0.01 0.01 0.00 0.00 0.00 0.00 0.00 0.00 0.01 0.01 0.01 0.01 0.01 0.01 0.02 0.02 0.01 0.00 0.00
MSLP
1013.94 1014.41 1014.94 1015.50 1016.01 1016.41 1016.67 1016.77 1016.70 1016.52 1016.26 1015.98 1015.73 1015.55 1015.47 1015.48 1015.58 1015.73 1015.93 1016.15 1016.40 1016.66 1016.95 1017.27 1017.60 1017.95 1018.28 1018.56 1018.77 1018.90 1018.94 1018.90 1018.82 1018.72 1018.64 1018.59 1018.59 1018.61
1013.60 1014.01 1014.50 1015.02 1015.51 1015.91 1016.18 1016.31 1016.29 1016.15 1015.93 1015.68 1015.46 1015.29 1015.21 1015.21 1015.29 1015.43 1015.61 1015.81 1016.04 1016.29 1016.57 1016.87 1017.20 1017.55 1017.89 1018.19 1018.45 1018.62 1018.71 1018.71 1018.66 1018.58 1018.49 1018.43 1018.41 1018.41
1013.29 1013.63 1014.05 1014.51 1014.96 1015.35 1015.63 1015.78 1015.80 1015.71 1015.55 1015.36 1015.17 1015.04 1014.98 1014.99 1015.06 1015.19 1015.35 1015.54 1015.73 1015.94 1016.18 1016.44 1016.73 1017.04 1017.37 1017.68 1017.96 1018.17 1018.31 1018.36 1018.36 1018.31 1018.24 1018.18 1018.14 1018.15
1013.01 1013.28 1013.62 1014.02 1014.42 1014.78 1015.06 1015.24 1015.31 1015.28 1015.18 1015.05 1014.92 1014.83 1014.80 1014.84 1014.92 1015.04 1015.19 1015.34 1015.49 1015.65 1015.82 1016.02 1016.24 1016.50 1016.79 1017.08 1017.36 1017.59 1017.77 1017.88 1017.92 1017.92 1017.88 1017.84 1017.82 1017.83
1012.79 1012.98 1013.25 1013.58 1013.94 1014.28 1014.56 1014.76 1014.87 1014.89 1014.85 1014.79 1014.72 1014.69 1014.70 1014.76 1014.86 1014.98 1015.11 1015.24 1015.35 1015.44 1015.54 1015.65 1015.80 1015.98 1016.20 1016.45 1016.71 1016.95 1017.16 1017.32 1017.41 1017.46 1017.47 1017.46 1017.46 1017.48
1012.64 1012.76 1012.97 1013.24 1013.56 1013.87 1014.15 1014.37 1014.51 1014.59 1014.61 1014.60 1014.59 1014.60 1014.65 1014.74 1014.85 1014.99 1015.11 1015.21 1015.28 1015.33 1015.36 1015.39 1015.45 1015.54 1015.68 1015.87 1016.09 1016.33 1016.54 1016.73 1016.88 1016.97 1017.02 1017.05 1017.07 1017.11
1012.59 1012.65 1012.80 1013.03 1013.30 1013.59 1013.87 1014.09 1014.26 1014.37 1014.43 1014.46 1014.49 1014.54 1014.62 1014.73 1014.87 1015.01 1015.14 1015.24 1015.28 1015.29 1015.27 1015.24 1015.21 1015.23 1015.29 1015.41 1015.58 1015.78 1015.99 1016.19 1016.36 1016.49 1016.58 1016.64 1016.68 1016.73
1012.64 1012.65 1012.76 1012.94 1013.18 1013.45 1013.70 1013.93 1014.11 1014.23 1014.30 1014.35 1014.40 1014.47 1014.57 1014.71 1014.86 1015.02 1015.17 1015.28 1015.33 1015.33 1015.28 1015.20 1015.12 1015.07 1015.05 1015.10 1015.20 1015.36 1015.54 1015.73 1015.91 1016.05 1016.17 1016.24 1016.30 1016.34
1012.80 1012.77 1012.82 1012.97 1013.17 1013.41 1013.65 1013.86 1014.02 1014.14 1014.21 1014.26 1014.32 1014.39 1014.49 1014.64 1014.81 1015.00 1015.17 1015.31 1015.39 1015.40 1015.35 1015.26 1015.15 1015.05 1014.98 1014.96 1015.00 1015.09 1015.22 1015.38 1015.53 1015.67 1015.79 1015.87 1015.92 1015.95
1013.04 1012.96 1012.98 1013.09 1013.26 1013.46 1013.67 1013.85 1014.00 1014.09 1014.15 1014.18 1014.22 1014.28 1014.38 1014.53 1014.72 1014.93 1015.14 1015.32 1015.44 1015.49 1015.48 1015.40 1015.29 1015.16 1015.05 1014.97 1014.94 1014.97 1015.04 1015.14 1015.25 1015.36 1015.45 1015.51 1015.54 1015.56
1013.33 1013.22 1013.20 1013.27 1013.40 1013.57 1013.74 1013.89 1014.01 1014.08 1014.11 1014.12 1014.13 1014.18 1014.27 1014.42 1014.62 1014.85 1015.09 1015.31 1015.48 1015.58 1015.61 1015.57 1015.48 1015.35 1015.22 1015.10 1015.01 1014.97 1014.97 1015.00 1015.06 1015.11 1015.16 1015.18 1015.19 1015.18
1013.64 1013.50 1013.45 1013.48 1013.57 1013.70 1013.84 1013.96 1014.05 1014.09 1014.10 1014.09 1014.09 1014.12 1014.20 1014.34 1014.54 1014.78 1015.04 1015.30 1015.51 1015.67 1015.75 1015.75 1015.69 1015.57 1015.43 1015.29 1015.16 1015.06 1014.99 1014.95 1014.94 1014.93 1014.92 1014.91 1014.88 1014.85
1013.96 1013.79 1013.70 1013.70 1013.75 1013.85 1013.96 1014.05 1014.12 1014.15 1014.14 1014.12 1014.11 1014.13 1014.21 1014.34 1014.53 1014.77 1015.04 1015.31 1015.56 1015.75 1015.87 1015.92 1015.89 1015.79 1015.66 1015.50 1015.35 1015.20 1015.08 1014.97 1014.89 1014.83 1014.77 1014.72 1014.66 1014.60
1014.28 1014.08 1013.96 1013.92 1013.94 1014.01 1014.09 1014.17 1014.23 1014.26 1014.26 1014.25 1014.24 1014.26 1014.33 1014.45 1014.62 1014.85 1015.11 1015.38 1015.63 1015.84 1015.98 1016.05 1016.05 1015.98 1015.87 1015.71 1015.54 1015.37 1015.21 1015.06 1014.93 1014.82 1014.72 1014.64 1014.56 1014.48
1014.61 1014.39 1014.24 1014.16 1014.16 1014.20 1014.27 1014.34 1014.40 1014.44 1014.46 1014.47 1014.48 1014.51 1014.57 1014.68 1014.84 1015.04 1015.27 1015.51 1015.74 1015.94 1016.08 1016.16 1016.18 1016.14 1016.04 1015.90 1015.73 1015.55 1015.37 1015.21 1015.05 1014.91 1014.79 1014.68 1014.59 1014.52
1014.98 1014.73 1014.55 1014.45 1014.42 1014.45 1014.50 1014.57 1014.64 1014.70 1014.75 1014.79 1014.82 1014.87 1014.93 1015.03 1015.16 1015.33 1015.51 1015.71 1015.90 1016.07 1016.19 1016.27 1016.29 1016.26 1016.19 1016.07 1015.92 1015.75 1015.58 1015.42 1015.26 1015.11 1014.98 1014.87 1014.78 1014.70
1015.40 1015.14 1014.95 1014.83 1014.78 1014.78 1014.83 1014.90 1014.98 1015.06 1015.13 1015.20 1015.25 1015.32 1015.39 1015.47 1015.58 1015.70 1015.84 1015.98 1016.12 1016.24 1016.33 1016.39 1016.41 1016.39 1016.33 1016.24 1016.12 1015.98 1015.84 1015.69 1015.54 1015.41 1015.29 1015.18 1015.09 1015.02
1015.92 1015.66 1015.46 1015.32 1015.25 1015.24 1015.27 1015.34 1015.42 1015.51 1015.60 1015.68 1015.76 1015.83 1015.89 1015.97 1016.04 1016.13 1016.21 1016.30 1016.39 1016.46 1016.52 1016.55 1016.56 1016.55 1016.50 1016.44 1016.35 1016.25 1016.13 1016.01 1015.90 1015.78 1015.68 1015.59 1015.51 1015.44
1016.52 1016.28 1016.08 1015.94 1015.86 1015.83 1015.84 1015.89 1015.96 1016.04 1016.13 1016.21 1016.29 1016.36 1016.42 1016.48 1016.53 1016.58 1016.63 1016.67 1016.71 1016.74 1016.76 1016.77 1016.77 1016.76 1016.73 1016.69 1016.63 1016.56 1016.48 1016.39 1016.30 1016.21 1016.12 1016.04 1015.97 1015.89
1017.19 1016.99 1016.81 1016.68 1016.60 1016.55 1016.54 1016.56 1016.60 1016.65 1016.71 1016.78 1016.84 1016.90 1016.94 1016.98 1017.02 1017.04 1017.06 1017.07 1017.08 1017.08 1017.08 1017.08 1017.07 1017.05 1017.03 1017.00 1016.97 1016.92 1016.86 1016.80 1016.73 1016.66 1016.59 1016.52 1016.44 1016.36
1017.91 1017.75 1017.61 1017.50 1017.41 1017.35 1017.31 1017.29 1017.29 1017.30 1017.32 1017.35 1017.38 1017.41 1017.44 1017.46 1017.47 1017.48 1017.48 1017.48 1017.47 1017.47 1017.46 1017.45 1017.44 1017.43 1017.41 1017.39 1017.36 1017.33 1017.28 1017.23 1017.18 1017.12 1017.05 1016.98 1016.90 1016.81
1018.60 1018.51 1018.42 1018.33 1018.26 1018.19 1018.12 1018.06 1018.01 1017.97 1017.93 1017.91 1017.89 1017.89 1017.88 1017.89 1017.89 1017.89 1017.89 1017.89 1017.89 1017.89 1017.89 1017.88 1017.87 1017.87 1017.85 1017.83 1017.81 1017.78 1017.74 1017.69 1017.63 1017.57 1017.51 1017.43 1017.35 1017.25
1019.22 1019.19 1019.16 1019.11 1019.05 1018.98 1018.89 1018.79 1018.69 1018.60 1018.51 1018.43 1018.36 1018.32 1018.28 1018.27 1018.26 1018.27 1018.28 1018.29 1018.31 1018.32 1018.34 1018.35 1018.35 1018.35 1018.34 1018.32 1018.29 1018.26 1018.21 1018.16 1018.09 1018.03 1017.96 1017.88 1017.79 1017.68
Thickness
5702 5701 5698 5696 5695 5693 5690 5687 5679 5674 5677 5685 5691 5696 5696 5695 5693 5690 5689 5689 5688 5688 5688 5688 5689 5689 5690 5690 5691 5691 5692 5693 5694 5695 5697 5699 5700 5702
5694 5693 5691 5690 5689 5688 5687 5685 5683 5677 5674 5682 5687 5693 5694 5693 5691 5689 5689 5688 5687 5686 5686 5686 5686 5686 5686 5686 5686 5686 5687 5688 5689 5690 5691 5693 5694 5696
5688 5687 5686 5685 5684 5683 5682 5682 5681 5679 5674 5678 5686 5689 5689 5688 5687 5686 5687 5687 5685 5685 5684 5684 5684 5684 5683 5683 5682 5682 5682 5683 5684 5685 5686 5687 5689 5690
5682 5683 5683 5683 5680 5680 5679 5679 5678 5678 5675 5674 5679 5682 5682 5683 5683 5683 5684 5685 5684 5684 5684 5683 5682 5682 5681 5680 5679 5678 5678 5678 5679 5680 5681 5683 5684 5685
5678 5678 5679 5679 5677 5676 5676 5676 5676 5676 5676 5674 5675 5678 5678 5678 5677 5678 5680 5681 5682 5684 5682 5681 5680 5680 5679 5678 5677 5676 5676 5676 5676 5677 5677 5678 5679 5680
5675 5675 5675 5675 5672 5671 5671 5671 5672 5671 5672 5671 5671 5672 5673 5674 5672 5671 5671 5674 5676 5680 5679 5678 5678 5678 5678 5677 5676 5676 5675 5675 5675 5675 5675 5675 5675 5676
5670 5671 5671 5669 5667 5666 5665 5664 5665 5666 5667 5667 5667 5668 5667 5667 5666 5668 5666 5667 5670 5674 5674 5675 5676 5676 5675 5676 5675 5675 5675 5675 5674 5673 5673 5672 5671 5671
5663 5664 5663 5663 5661 5660 5660 5660 5659 5659 5660 5662 5663 5662 5663 5665 5665 5663 5661 5660 5660 5667 5669 5670 5672 5672 5673 5674 5675 5675 5675 5673 5672 5671 5670 5669 5668 5667
5656 5657 5659 5659 5656 5655 5655 5655 5654 5654 5655 5656 5657 5659 5660 5662 5661 5659 5658 5657 5657 5659 5660 5660 5665 5666 5669 5670 5671 5672 5670 5669 5667 5666 5665 5665 5664 5663
5651 5652 5652 5651 5650 5649 5649 5648 5649 5649 5650 5651 5653 5655 5657 5658 5657 5657 5655 5654 5654 5654 5654 5652 5655 5657 5660 5661 5663 5663 5662 5661 5660 5659 5659 5659 5658 5657
5643 5644 5643 5642 5641 5641 5641 5642 5642 5642 5643 5645 5646 5648 5649 5651 5651 5651 5648 5646 5645 5646 5648 5646 5647 5648 5650 5651 5652 5652 5652 5651 5651 5651 5651 5650 5649 5649
5632 5634 5633 5632 5631 5632 5633 5634 5634 5636 5638 5639 5640 5641 5643 5644 5644 5644 5643 5641 5639 5639 5640 5639 5639 5639 5639 5641 5642 5642 5642 5642 5641 5641 5641 5640 5640 5639
5619 5621 5621 5621 5622 5624 5626 5627 5628 5630 5634 5635 5635 5636 5637 5637 5638 5639 5639 5638 5635 5634 5634 5633 5631 5630 5629 5629 5632 5632 5632 5631 5631 5631 5631 5630 5629 5628
5609 5611 5611 5613 5615 5617 5619 5621 5624 5626 5628 5629 5630 5630 5630 5631 5633 5634 5635 5635 5634 5632 5631 5629 5626 5623 5621 5620 5620 5622 5623 5622 5621 5620 5619 5619 5618 5617
5603 5604 5605 5607 5608 5611 5614 5616 5618 5621 5623 5624 5624 5625 5627 5628 5629 5630 5630 5629 5629 5627 5626 5624 5621 5618 5615 5612 5610 5611 5611 5611 5610 5608 5607 5606 5605 5604
5598 5599 5599 5600 5601 5603 5607 5611 5613 5617 5619 5620 5621 5622 5624 5624 5624 5624 5623 5622 5621 5620 5620 5618 5615 5612 5609 5606 5603 5601 5600 5598 5597 5596 5594 5593 5592 5592
5591 5592 5593 5594 5596 5598 5602 5606 5609 5612 5614 5616 5617 5618 5618 5619 5619 5620 5618 5617 5614 5612 5610 5610 5609 5607 5604 5600 5595 5591 5588 5585 5583 5582 5580 5578 5577 5576
5587 5585 5584 5585 5587 5590 5594 5598 5603 5606 5609 5612 5613 5614 5614 5614 5614 5614 5613 5611 5608 5605 5603 5602 5600 5597 5594 5588 5584 5580 5575 5571 5569 5567 5565 5562 5561 5559
5582 5580 5579 5580 5581 5585 5589 5593 5597 5601 5605 5607 5609 5609 5610 5610 5609 5607 5606 5604 5602 5600 5597 5594 5591 5586 5580 5575 5572 5568 5563 5559 5555 5552 5550 5547 5545 5544
5581 5579 5579 5580 5581 5584 5588 5591 5595 5598 5601 5603 5604 5605 5606 5606 5604 5603 5600 5598 5596 5594 5591 5587 5582 5577 5572 5567 5563 5557 5552 5547 5542 5538 5535 5533 5532 5529
5585 5583 5583 5584 5585 5587 5589 5592 5594 5596 5598 5599 5600 5601 5602 5602 5601 5600 5598 5596 5593 5589 5585 5581 5577 5574 5569 5563 5555 5548 5543 5539 5534 5528 5524 5520 5517 5515
5590 5588 5587 5588 5588 5590 5591 5593 5594 5595 5596 5597 5598 5599 5600 5600 5599 5598 5596 5593 5590 5586 5582 5578 5575 5570 5563 5555 5547 5541 5536 5531 5527 5522 5517 5511 5505 5501
5595 5593 5592 5592 5592 5593 5594 5595 5595 5595 5596 5597 5598 5598 5599 5599 5598 5596 5594 5591 5587 5584 5580 5575 5571 5566 5559 5552 5544 5536 5530 5524 5519 5514 5509 5505 5501 5497